Location: Saluda
(35.2377°N, 82.3468°W)
Time: 16:46:25
(UTC+00:00)

Explorer 11/Cluster Stage 4 - Pass Details

Date: 11 October 2022
Orbit: 466 x 1247 km, 28.8° (Epoch: 08 December)

Event Time Altitude Azimuth Distance (km) Brightness Sun altitude
Rises 15:30:49 0° 261° (W) 3,951 10.0 40.9°
Reaches altitude 10° 15:33:35 10° 257° (WSW) 3,069 9.5 41.2°
Maximum altitude 15:41:11 55° 182° (S) 1,463 9.4 42.0°
Drops below altitude 10° 15:49:07 10° 108° (ESE) 3,192 10.4 42.9°
Sets 15:52:02 0° 104° (ESE) 4,117 10.7 43.2°
